Temp
-6 -7 -7 -7 -6 -6 -6 -6 -6 -5 -5 -5 -5 -5 -5 -5 -5 -6 -6 -7 -7 -7 -7 -6 -7 -7 -7 -6 -6 -6 -6 -6 -6
-6 -7 -7 -7 -7 -6 -6 -6 -6 -6 -5 -5 -5 -5 -5 -5 -5 -6 -6 -7 -6 -7 -7 -7 -7 -7 -7 -7 -6 -6 -6 -6 -5
-7 -8 -7 -7 -7 -6 -6 -5 -6 -6 -6 -5 -5 -5 -6 -6 -6 -6 -7 -7 -7 -7 -7 -7 -7 -7 -7 -7 -7 -6 -6 -6 -6
-7 -7 -8 -7 -6 -6 -6 -6 -6 -6 -6 -6 -6 -6 -6 -7 -7 -7 -7 -7 -7 -7 -7 -7 -7 -7 -7 -7 -7 -6 -6 -6 -6
-7 -7 -8 -7 -7 -7 -6 -6 -6 -6 -6 -6 -6 -6 -7 -7 -7 -7 -7 -7 -7 -7 -7 -7 -7 -7 -7 -7 -7 -7 -6 -6 -6
-7 -7 -7 -8 -7 -7 -6 -6 -6 -6 -6 -6 -6 -6 -7 -6 -6 -6 -7 -7 -7 -7 -7 -7 -7 -7 -7 -7 -7 -7 -7 -6 -6
-7 -7 -7 -8 -8 -7 -7 -7 -6 -5 -6 -6 -6 -6 -6 -6 -6 -6 -7 -7 -7 -7 -7 -7 -7 -7 -7 -7 -7 -7 -7 -6 -6
-7 -7 -7 -7 -7 -7 -8 -7 -6 -5 -6 -6 -6 -6 -6 -6 -7 -7 -7 -7 -7 -7 -7 -7 -7 -8 -8 -8 -8 -7 -7 -7 -7
-7 -6 -6 -8 -8 -8 -7 -6 -7 -6 -6 -6 -6 -7 -7 -7 -6 -6 -7 -7 -7 -7 -8 -8 -8 -8 -8 -8 -8 -8 -8 -8 -8
-7 -8 -8 -9 -7 -7 -8 -7 -7 -7 -6 -6 -6 -6 -7 -7 -7 -7 -7 -7 -7 -7 -8 -8 -8 -8 -8 -8 -9 -9 -9 -8 -8
-7 -7 -9 -9 -7 -8 -8 -8 -7 -6 -6 -6 -6 -6 -7 -7 -7 -7 -7 -7 -7 -7 -7 -7 -7 -7 -8 -8 -9 -9 -9 -9 -9
-7 -7 -8 -8 -7 -8 -8 -7 -6 -6 -6 -6 -6 -6 -7 -7 -7 -8 -7 -8 -7 -7 -7 -7 -7 -7 -7 -8 -8 -8 -9 -9 -9
-8 -7 -7 -6 -7 -7 -7 -7 -7 -7 -7 -6 -6 -6 -6 -7 -7 -7 -7 -7 -7 -7 -7 -7 -7 -9 -9 -10 -9 -9 -9 -9 -9
-9 -8 -8 -7 -7 -6 -7 -7 -7 -7 -7 -7 -7 -6 -6 -6 -6 -7 -7 -6 -6 -6 -6 -7 -7 -8 -8 -9 -9 -8 -9 -8 -8
-9 -9 -8 -7 -7 -6 -7 -7 -6 -7 -7 -6 -6 -7 -7 -6 -6 -6 -6 -6 -6 -6 -6 -6 -7 -7 -7 -8 -8 -8 -8 -8 -7
-8 -10 -9 -8 -7 -7 -8 -8 -8 -7 -7 -6 -6 -6 -6 -6 -6 -6 -6 -6 -6 -6 -6 -6 -7 -6 -6 -7 -7 -8 -7 -7 -8
-9 -9 -9 -9 -9 -9 -8 -8 -8 -8 -7 -7 -6 -6 -6 -6 -6 -6 -6 -6 -6 -6 -6 -6 -6 -6 -6 -7 -7 -7 -7 -8 -8
-8 -10 -9 -9 -9 -9 -9 -8 -8 -8 -8 -7 -7 -6 -6 -6 -6 -6 -6 -6 -6 -6 -6 -6 -5 -6 -6 -6 -6 -7 -7 -8 -7
-8 -9 -9 -9 -9 -9 -9 -8 -8 -8 -7 -7 -7 -6 -6 -6 -6 -6 -6 -6 -6 -6 -6 -6 -6 -5 -5 -6 -6 -6 -6 -8 -8
-9 -10 -9 -10 -9 -9 -9 -9 -8 -8 -7 -7 -7 -7 -7 -6 -6 -6 -6 -6 -6 -6 -7 -7 -6 -6 -5 -5 -6 -6 -7 -8 -8
Height
5903 5905 5904 5905 5909 5909 5908 5907 5907 5906 5904 5902 5901 5899 5897 5896 5894 5894 5893 5893 5894 5893 5892 5893 5893 5894 5894 5894 5894 5894 5894 5893 5894
5903 5900 5902 5905 5908 5908 5908 5908 5907 5904 5903 5901 5899 5897 5894 5893 5892 5891 5891 5891 5891 5891 5890 5891 5892 5891 5890 5889 5890 5890 5890 5889 5889
5894 5895 5898 5905 5907 5907 5907 5907 5906 5904 5903 5901 5898 5895 5892 5890 5889 5889 5888 5888 5888 5888 5889 5888 5888 5887 5884 5887 5887 5887 5887 5887 5886
5889 5891 5895 5901 5904 5905 5903 5902 5901 5901 5900 5898 5896 5892 5890 5888 5886 5886 5886 5886 5886 5885 5886 5886 5885 5885 5884 5884 5884 5884 5884 5884 5883
5889 5888 5892 5897 5899 5901 5901 5898 5899 5899 5898 5896 5894 5889 5888 5887 5886 5885 5885 5884 5883 5883 5884 5884 5884 5884 5885 5884 5883 5882 5882 5881 5880
5883 5882 5886 5894 5895 5896 5896 5896 5898 5897 5895 5895 5892 5889 5888 5887 5886 5886 5884 5883 5882 5881 5881 5881 5881 5881 5881 5880 5880 5879 5878 5878 5877
5877 5877 5881 5889 5891 5893 5894 5894 5895 5896 5895 5893 5891 5890 5889 5887 5885 5884 5882 5881 5880 5880 5879 5879 5878 5879 5878 5877 5876 5875 5875 5873 5872
5873 5874 5868 5879 5888 5890 5891 5891 5891 5892 5893 5891 5891 5889 5888 5887 5885 5884 5882 5880 5878 5877 5877 5877 5876 5875 5874 5874 5873 5872 5872 5871 5870
5869 5868 5873 5876 5883 5887 5886 5886 5887 5889 5889 5890 5888 5887 5886 5885 5884 5882 5881 5880 5879 5877 5876 5875 5873 5872 5871 5871 5870 5869 5868 5867 5867
5862 5860 5852 5872 5878 5884 5883 5882 5882 5884 5884 5885 5885 5884 5883 5882 5881 5879 5878 5878 5877 5875 5874 5873 5872 5870 5869 5867 5865 5864 5864 5863 5861
5856 5857 5860 5865 5872 5875 5878 5877 5877 5877 5879 5879 5880 5880 5879 5877 5876 5876 5876 5874 5872 5871 5870 5870 5869 5868 5866 5864 5861 5860 5858 5857 5857
5850 5856 5857 5859 5865 5868 5871 5872 5872 5872 5873 5874 5874 5874 5874 5873 5871 5871 5872 5870 5869 5868 5867 5865 5864 5863 5861 5859 5857 5855 5853 5850 5850
5842 5844 5851 5855 5859 5862 5863 5863 5865 5866 5867 5868 5869 5868 5867 5866 5864 5864 5865 5865 5864 5863 5862 5860 5859 5854 5847 5849 5847 5846 5844 5842 5842
5835 5838 5844 5848 5850 5854 5856 5857 5859 5860 5861 5862 5862 5861 5860 5860 5858 5857 5857 5859 5857 5855 5853 5852 5850 5847 5844 5840 5834 5831 5832 5832 5833
5827 5832 5837 5839 5843 5846 5848 5850 5851 5853 5855 5855 5856 5855 5854 5853 5852 5850 5849 5850 5850 5849 5846 5845 5843 5840 5835 5832 5829 5825 5821 5822 5820
5817 5818 5827 5831 5835 5837 5839 5841 5843 5845 5847 5848 5846 5846 5847 5846 5846 5844 5842 5842 5842 5841 5839 5836 5834 5831 5828 5822 5820 5816 5815 5814 5811
5808 5816 5821 5823 5827 5829 5831 5832 5834 5836 5837 5837 5837 5837 5838 5838 5837 5837 5835 5833 5834 5833 5831 5828 5825 5820 5818 5815 5812 5809 5805 5803 5800
5793 5809 5813 5817 5820 5823 5823 5824 5825 5827 5827 5828 5828 5828 5828 5828 5828 5828 5827 5826 5825 5823 5822 5820 5817 5812 5808 5806 5804 5801 5797 5794 5793
5761 5802 5807 5811 5813 5815 5817 5817 5818 5818 5819 5820 5819 5819 5818 5818 5818 5817 5816 5816 5815 5813 5812 5811 5808 5803 5799 5796 5794 5792 5789 5784 5784
5749 5782 5796 5800 5803 5806 5809 5809 5809 5809 5809 5809 5810 5810 5809 5808 5807 5806 5805 5804 5803 5802 5801 5800 5798 5795 5791 5786 5783 5780 5778 5777 5777
Wind_Speed
6 4 3 3 5 3 4 4 5 5 5 6 7 7 5 5 6 8 11 12 11 13 14 14 14 16 15 12 12 14 17 18 18
6 7 2 4 10 4 6 3 5 6 8 9 10 9 9 9 9 9 7 10 10 11 13 12 13 14 17 15 13 15 14 15 14
3 6 7 6 8 15 5 2 3 3 7 9 12 11 8 9 10 8 6 7 9 11 11 11 11 14 7 4 7 9 11 13 13
7 5 9 9 4 4 3 3 7 7 10 13 14 13 9 8 9 4 4 3 5 6 10 9 10 8 8 7 8 9 9 11 12
21 13 10 18 10 9 5 7 9 8 10 13 14 14 8 7 6 4 3 4 4 3 4 5 5 7 8 8 7 7 8 9 11
27 19 13 21 15 12 13 11 12 11 10 11 13 13 7 6 6 4 3 3 4 4 3 4 4 6 8 8 9 7 7 8 8
17 28 26 18 19 21 20 19 14 15 10 11 10 11 10 8 10 10 5 5 6 4 2 3 4 6 8 10 10 9 9 9 8
29 21 31 19 16 18 23 17 15 16 12 11 10 10 12 11 12 12 10 7 6 5 5 5 5 6 7 9 10 11 11 11 11
28 22 29 17 26 24 14 14 14 15 17 14 13 10 11 13 14 13 12 11 10 9 9 8 7 8 8 11 11 11 11 12 13
36 41 33 24 24 24 16 16 21 19 19 20 18 15 13 14 16 17 17 16 14 12 13 14 14 15 13 12 12 12 13 14 14
39 33 32 28 28 27 23 18 23 23 21 22 22 20 18 20 21 20 21 21 23 22 20 19 20 20 21 19 18 16 15 15 15
33 34 28 38 32 27 22 18 23 24 24 24 24 25 25 24 25 24 23 24 24 25 27 29 31 34 31 31 29 27 23 21 22
27 33 23 19 24 18 24 22 23 26 27 26 26 27 28 29 29 29 27 27 27 28 26 26 32 28 32 40 36 35 32 29 27
25 25 31 25 19 19 19 23 26 29 30 28 29 30 31 32 32 32 31 28 31 34 33 30 28 37 36 33 36 29 40 33 32
35 24 24 27 22 21 23 25 28 29 30 32 32 31 30 32 33 35 35 34 32 34 35 33 32 34 34 35 37 32 21 34 35
38 18 25 32 26 29 29 31 31 33 33 33 34 34 32 31 31 33 33 33 32 33 34 34 34 34 36 37 37 34 27 35 36
33 30 29 27 29 30 32 34 36 35 34 32 32 33 33 32 32 32 32 34 33 35 34 34 35 38 37 37 36 35 38 35 37
43 36 32 32 29 29 31 32 36 36 35 34 34 35 35 34 33 34 33 34 35 36 33 33 36 38 41 41 36 37 36 35 28
47 38 36 38 42 37 38 36 38 38 37 36 35 35 36 35 35 35 35 35 37 38 35 33 35 37 40 40 38 35 34 31 29
35 33 39 40 43 44 40 38 39 40 41 39 38 38 37 36 37 37 38 38 39 38 38 36 35 36 37 40 40 37 27 25 28
Wind_Direction
98 108 114 198 261 330 8 68 18 -0 14 11 354 337 317 297 286 277 257 251 241 253 263 259 258 265 268 264 264 268 264 274 258
248 124 342 276 254 267 356 51 31 356 6 3 342 324 295 274 272 276 288 255 245 246 258 263 261 262 254 254 268 267 271 275 268
135 152 260 276 224 227 281 186 65 21 8 -0 345 332 326 302 278 261 268 265 258 250 253 260 270 264 302 334 284 281 273 274 271
220 213 236 301 295 200 303 352 10 12 3 358 358 341 321 312 307 285 278 263 285 266 243 248 268 269 279 281 290 291 285 282 279
257 203 237 278 289 324 323 349 332 339 350 2 3 2 -0 357 332 287 308 267 332 289 270 260 250 252 269 278 286 284 281 284 285
260 191 215 262 282 300 324 320 302 310 333 350 5 8 358 10 5 309 318 347 303 324 298 267 262 272 276 277 273 273 270 270 282
290 203 205 232 274 293 296 300 276 291 308 330 351 -0 1 5 7 6 317 323 337 291 282 284 278 270 260 265 264 262 260 261 267
274 279 200 194 260 298 282 269 268 281 293 304 311 337 347 -0 10 7 351 331 322 312 285 281 284 280 270 267 265 268 270 270 273
270 292 255 222 242 263 262 261 269 275 287 287 296 312 324 328 333 334 340 346 335 319 300 285 270 269 270 275 275 273 272 273 279
271 268 211 227 242 247 256 266 267 264 275 282 287 294 299 303 308 312 322 324 324 318 312 298 288 283 273 267 272 267 265 264 268
264 267 223 236 237 246 273 266 255 255 260 271 278 285 288 294 298 301 307 312 309 308 305 303 303 297 288 277 268 260 261 260 260
266 269 240 237 230 241 259 269 252 251 255 261 268 278 283 282 287 293 296 300 301 301 304 307 307 304 292 280 274 272 261 255 253
263 265 267 250 234 238 252 258 249 250 253 256 263 271 276 280 283 287 293 298 301 300 302 299 292 328 320 273 262 253 255 255 247
247 246 257 255 249 255 251 250 246 246 252 256 263 270 274 277 283 288 291 295 296 298 299 297 305 299 311 309 326 267 251 246 247
237 227 241 249 256 265 257 251 256 253 254 257 261 263 266 271 277 282 286 290 291 292 295 297 299 304 311 313 318 317 281 268 248
234 236 244 237 244 260 252 253 257 259 258 258 261 263 265 270 273 278 283 287 288 291 293 299 300 302 307 309 313 307 293 292 291
228 230 239 255 254 244 250 256 261 261 261 261 264 268 273 276 278 278 281 285 285 288 290 295 298 301 300 303 304 302 301 295 288
201 215 232 243 240 249 247 253 260 263 265 268 271 273 276 277 277 278 280 281 285 289 289 290 296 298 299 300 298 300 298 289 279
178 220 237 248 250 255 257 257 257 260 263 266 266 268 271 273 275 277 280 281 283 285 287 289 291 296 295 295 293 296 296 283 281
164 199 233 243 252 251 255 259 260 263 265 267 269 269 269 270 274 276 278 281 284 285 287 290 289 288 290 290 292 299 296 276 272